Back to catalog

STARLINK-37503

AliveCommunicationsVLEO
NORAD 69262·PAYLOAD·🇺🇸 United States

Launched May 29, 2026 from Cape Canaveral Space Force Station

Loading…

Next Passes (next 24 hours)

TLE

FreshSource: CelesTrak SupGP

Epoch: Sep 15, 2026, 03:32 UTC

1 69262C 26117AA  26258.14770833  .00043020  00000+0  12716-2 0  2583
2 69262  53.1571 178.9463 0001054  84.1823 240.9005 15.34356277    17

Track STARLINK-37503 in real time with AllMySat

Download on the App Store